Other Public Products
Issued by NWS Grand Forks, ND

Home | Current Version | Previous Version | Text Only | Print | Product List | Glossary On
Versions: 1 2 3 4 5 6 7 8 9 10 11 12 13 14 15 16 17 18 19 20 21 22 23 24 25 26 27 28 29 30 31 32 33 34 35 36 37 38 39 40 41 42 43 44 45 46 47 48 49 50
000
FPUS83 KFGF 241131
OPUFGF
PRAIRIE TO PINES WEATHER ROUNDUP
NATIONAL WEATHER SERVICE EASTERN NORTH DAKOTA/GRAND FORKS ND
500 AM CST FRI FEB 24 2017

 **SATELLITE DATA USED TO AUGMENT SKY COVER AT AUTOMATED STATIONS**
 *****  WEATHER ACROSS EASTERN NORTH DAKOTA  *****

CITY           SKY/WX    TMP DP  RH WIND       PRES   REMARKS
GRAND FORKS    CLOUDY    18  10  71 N7        30.13S WCI   9
GRAND FORKS AF CLOUDY    17  13  83 N6        30.12F WCI   9
GRAND CITY NWS NOT AVBL
BUXTON         NOT AVBL
DEVILS LAKE    MOCLDY    17  13  84 W8        30.11S WCI   7
FARGO          FAIR      19  11  70 N12       30.11R WCI   7
WAHPETON ARPT  FAIR      19  10  68 N16       30.07S WCI   5
$$

 *****  WEATHER ACROSS CENTRAL AND WESTERN NORTH DAKOTA  *****

CITY           SKY/WX    TMP DP  RH WIND       PRES   REMARKS
JAMESTOWN      CLOUDY    19  16  88 N13       30.08R WCI   6
BISMARCK       FAIR      17  11  77 NW9       30.12F WCI   6
MINOT          FAIR      20  15  81 NW7       30.12S WCI  11
MINOT AFB      FAIR      18  13  81 N6        30.12S WCI   9
GARRISON         N/A     17  12  80 CALM      30.11F
WILLISTON      CLOUDY    12   9  87 CALM      30.14S
DICKINSON      FAIR       6   3  87 CALM      30.07S
HETTINGER      FAIR      14   8  77 NE9       30.08S WCI   2
$$

 *****  OTHER OBSERVATIONS NORTHEAST NORTH DAKOTA  *****

CITY           SKY/WX    TMP DP  RH WIND       PRES   REMARKS
WALHALLA       NOT AVBL
LANGDON        NOT AVBL
CAVALIER         N/A     14   9  79 CALM      30.15S
GRAFTON        FAIR      14  10  85 N5        30.16R WCI   6
CANDO          NOT AVBL
FORT TOTTEN      N/A     16  14  93 W3        29.95S
ROLLA          FAIR      14   9  79 NW16      30.09S WCI  -2
RUGBY            N/A     10  10 100 CALM      30.12S
 ***** THE ABOVE OBSERVATIONS ARE NON NWS ARE NOT QUALITY
        CONTROLLED AND MAY MIS-REPORT RAIN FOR SNOW...
$$

 *****  OTHER OBSERVATIONS SOUTHEAST NORTH DAKOTA *****

CITY           SKY/WX    TMP DP  RH WIND       PRES   REMARKS
COOPERSTOWN    CLOUDY    19  16  86 N6        30.09S WCI  11
VALLEY CITY    CLOUDY    18  18 100 N8        30.11S WCI   7
OAKES          NOT AVBL
GWINNER        FAIR      21  18  86 N14       30.08S WCI   8
SHEYENNE NWR     N/A     18  12  76 N7        29.95S WCI   9
BUFFALO        NOT AVBL
WYNDMERE         N/A     19  14  79 N15         N/A  WCI   5
 ***** THE ABOVE OBSERVATIONS ARE NON NWS ARE NOT QUALITY
       CONTROLLED AND MAY MIS-REPORT RAIN FOR SNOW...
$$

  *****  WEATHER ACROSS NORTHERN MINNESOTA  *****

CITY           SKY/WX    TMP DP  RH WIND       PRES   REMARKS
FLAG ISLAND    FAIR       7   1  78 NW6       30.09S WCI  -3
WARROAD        FAIR       3   0  85 NW3       30.10S
ROSEAU         FAIR       3   0  85 CALM      30.11S
HALLOCK        MOCLDY    12   7  79 CALM      30.13S
THF RVR FALLS  FAIR      10   5  80 N8        30.11R WCI  -2
HALSTAD          N/A     17  10  74 N12         N/A  WCI   5
FOSSTON        FAIR      10   5  79 N9        30.08R WCI  -2
BAUDETTE       FAIR       5   1  83 N7        30.07F WCI  -7
WASKISH        FAIR       9   5  85 N5        30.06S WCI   0
CROOKSTON      FAIR      16   9  73 NE6       30.14R WCI   7
$$
  *****  WEATHER ACROSS CENTRAL AND WEST MINNESOTA  *****

CITY           SKY/WX    TMP DP  RH WIND       PRES   REMARKS
BEMIDJI        FAIR       8   4  85 N6        30.05R WCI  -2
PARK RAPIDS    FAIR      13   4  67 N10       30.01R WCI   0
WADENA         FAIR      14   9  79 N14       29.99F WCI  -1
DETROIT LAKES  FAIR      14   9  79 N3        30.06R
MOORHEAD       FAIR      18   9  68 N14       30.11R WCI   4
FERGUS FALLS   FAIR      18   9  68 N12G17    30.08S WCI   5
ELBOW LAKE     FAIR      17  10  74 N15       30.00F WCI   3
MORRIS MN      FAIR      19  12  73 N22G28    29.96F WCI   3
STAPLES        FAIR      16   9  73 N12       29.98F WCI   3
WHEATON        FAIR      19  10  68 N17G24    30.05S WCI   4
$$
  *****  WEATHER ELSEWHERE ACROSS MINNESOTA  *****

CITY           SKY/WX    TMP DP  RH WIND       PRES   REMARKS
DULUTH         FAIR      18  13  80 N10       29.93R WCI   6
INTRNTL FALLS  FAIR      11   3  70 N6        30.05R WCI   1
ELY            FAIR      12   3  67 N5        29.97F WCI   4
CLOQUET        FAIR      18  12  79 N8G16     29.94S WCI   7
BRAINERD       FAIR      17  10  74 N13       29.98S WCI   4
HIBBING        FAIR      14   9  80 N6        29.98R WCI   5
ALEXANDRIA     FAIR      18  10  71 N18       29.95F WCI   2
SAINT CLOUD    FAIR      21  13  71 N15G22    29.92S WCI   8
MINNEAPOLIS    CLOUDY    26  16  65 N22       29.84F WCI  12
$$

  *****  WEATHER ACROSS SOUTH DAKOTA  *****

CITY           SKY/WX    TMP DP  RH WIND       PRES   REMARKS
SIOUX FALLS    CLOUDY    23  19  85 N23G32    29.83S WCI   7
BROOKINGS      CLOUDY    20  15  81 N21G31    29.87S WCI   4
WATERTOWN      FAIR      18  11  74 N25G33    29.93R WCI   0
HURON          FAIR      20  14  77 N24G35    29.99R WCI   3
SISSETON         N/A     20  14  77 N23       30.03R WCI   3
ABERDEEN       FAIR      19  12  74 N22G28    30.06R WCI   2
MITCHELL       CLOUDY    23  16  74 N21G35    29.94R WCI   8
PIERRE         MOCLDY    22  14  71 N17       30.04R WCI   8
MOBRIDGE       FAIR      20  15  81 N12       30.06S WCI   8
RAPID CITY     CLOUDY    21  18  88 N18       30.00S WCI   6
$$

  *****  SOME WEATHER IN NEARBY STATES *****

CITY           SKY/WX    TMP DP  RH WIND       PRES   REMARKS
GLASGOW MT     CLOUDY    24  19  81 SE10      30.08S WCI  14
GREAT FALLS MT CLOUDY    24  21  88 E3        29.95S
CHEYENNE WY    LGT SNOW  13   8  81 N8        29.81S WCI   2
SCOTTSBLUFF NE CLOUDY    21  15  78 N13       29.92R WCI   9
OMAHA NE       LGT SNOW  31  27  85 N17G26    29.67R FOG     WCI  19
DES MOINES IA  DRIZZLE   36  32  85 NE22G30   29.50F
DAVENPORT IA   CLOUDY    37  36  96 NE17      29.46R
CHICAGO IL     CLOUDY    40  38  93 N13       29.51F
EAU CLAIRE WI  HVY SNOW  28  26  92 N10       29.80F VSB 1/4 WCI  19
LA CROSSE WI   LGT SNOW  32  29  88 N16       29.70F FOG     WCI  21
$$

  *****  SOME NATIONAL WEATHER *****

CITY           SKY/WX    TMP DP  RH WIND       PRES   REMARKS
LA GUARDIA NY  FAIR      53  48  83 S6        29.92F
RALEIGH NC     FAIR      50  48  93 CALM      29.93R
ATLANTA GA     FAIR      58  54  86 SE5       29.89R
NEW ORLEANS LA FOG       61  61 100 SE5       29.78R VSB 3/4
OKLAHOMA CITY  FAIR      39  32  76 N25G32    29.72R
ALBUQUERQUE NM MOCLDY    33  20  58 W7        29.86R
SALT LAKE CITY FLURRIES  27  24  89 S3        29.94S
LOS ANGELES CA FAIR      48  20  32 CALM      30.11F
BOISE ID       CLOUDY    27  20  75 NW14        N/A  WCI  16
SEATTLE WA     FAIR      34  30  85 S3        30.15F
$$

*** WEATHER ACROSS MANITOBA...SASKATCHEWAN AND ONTARIO ***
                ***ONTARIO***

CITY           SKY/WX    TMP DP  RH WIND       PRES   REMARKS
GERALDTON      CLEAR     -2  -6  84 N2        30.05S
THUNDER BAY    PTCLDY     9   1  72 NE6       30.07R WCI  -1
SIOUX LOOKOUT  CLEAR      0  -6  78 VRB2      30.07S
TORONTO        LGT RAIN  39  36  87 E9        29.82S
BIG TROUT LK   PTCLDY   -13 -17  84 VRB2      30.20S
PICKLE LAKE    MOCLDY    -6  -9  84 N3        30.09
DRYDEN         CLEAR      3   0  85 NE3       30.05F
KENORA         CLEAR      3   0  85 N6        30.06F WCI  -8
$$
                *** MANITOBA***

CITY           SKY/WX    TMP DP  RH WIND       PRES   REMARKS
BRANDON        MOCLDY    12   9  85 N3        30.15S
DAUPHIN        CLOUDY    14   9  79 VRB2      30.18F
ISLAND LAKE    FLURRIES  -8 -13  77 N2        30.23R
PILOT MOUND      N/A     14  12  92 NW8         N/A  WCI   3
THE PAS        CLEAR      1  -4  78 SE2       30.20S
THOMPSON       PTCLDY   -15 -20  76 NE3       30.27
WINNIPEG       CLOUDY     9   3  78 NE8       30.17F WCI  -4
LYNN LAKE      PTCLDY   -20 -24  83 NE2       30.18F
CHURCHILL      PTCLDY   -15 -18  84 W2        30.38R
GILLAM         CLEAR    -18 -24  76 N2        30.32F
$$
                ***SASKATCHEWAN***

CITY           SKY/WX    TMP DP  RH WIND       PRES   REMARKS
ESTEVAN        MOCLDY    21  16  79 W3        30.12S
KINDERSLEY     CLOUDY    19  18  93 VRB2      30.05S
LLOYDMINSTER   CLOUDY    16  14  93 SW6       30.05S FOG     WCI   7
PRINCE ALBERT  CLOUDY     7   3  85 VRB2      30.12S
REGINA         CLEAR     18  16  93 W7        30.10R WCI   8
YORKTON        CLOUDY    14  10  85 CALM      30.12F



USA.gov is the U.S. government's official web portal to all federal, state and local government web resources and services.